[[{"header":{"parameterUnit":"m.s-1","parameterCategory":1,"la1":30.2991,"la2":30.254,"lo1":-89.0895,"lo2":-89.0444,"dy":0.0017,"dx":0.0017,"nx":28,"ny":28,"refTime":"2024-05-23T21:00:00:Z","depth":0,"parameterNumber":2,"parameterNumberName":"U-component_of_WINDS"},"data":[0,0,0,0,0,0,0,0,0,0,0,0,0,0,0,0,0,0,0,0,0,0,0,0,0,0,0,0,0,0,0,0,0,0,0,0,0,0,0,0,0,0,0,0,0,0,0,0,0,0,0,0,0,0,0,0,0,0,-2.4727,-2.4729,0,-2.4855,-2.4856,-2.4858,-2.4876,-2.4874,-2.4873,-2.4872,-2.5003,-2.5007,-2.5012,0,0,0,0,0,0,0,0,0,0,0,0,0,-2.45,-2.4504,-2.4727,-2.4729,-2.473,-2.4854,-2.4856,-2.4858,-2.4876,-2.4874,-2.4873,-2.4872,-2.5001,-2.5007,-2.5012,0,0,0,0,0,0,0,0,0,0,0,0,0,-2.461,-2.4505,-2.4727,-2.4754,-2.4758,-2.4854,-2.4856,-2.4858,-2.4876,-2.4874,-2.4873,-2.4871,-2.5,-2.5006,-2.5013,-2.5091,0,0,-2.5034,-2.5037,0,0,0,0,0,0,0,0,-2.4604,-2.4618,-2.4749,-2.4752,-2.4757,-2.4847,-2.4824,-2.4936,-2.4877,-2.4831,-2.4872,-2.487,-2.4953,-2.4963,-2.4991,-2.5097,-2.5103,-2.5035,-2.5039,-2.5042,-2.5044,0,0,0,0,0,0,0,-2.4596,-2.4613,-2.4778,-2.475,-2.4755,-2.476,-2.4774,-2.4845,-2.49,-2.4835,-2.4837,-2.4851,-2.4954,-2.4984,-2.4994,-2.5105,-2.5034,-2.504,-2.5045,-2.5047,-2.5281,-2.5283,0,0,0,0,0,0,-2.4583,-2.4606,-2.4773,-2.4781,-2.4674,-2.4766,-2.4781,-2.482,-2.49,-2.491,-2.4853,-2.4852,-2.4973,-2.4986,-2.4999,-2.5095,-2.5042,-2.5048,-2.5052,-2.5279,-2.5282,-2.5284,0,0,0,0,0,0,-2.4578,-2.4598,-2.4768,-2.4694,-2.4716,-2.4772,-2.4815,-2.4824,-2.4853,-2.4913,-2.4923,-2.4873,-2.4973,-2.4989,-2.5068,-2.51,-2.5051,-2.5057,-2.5277,-2.528,-2.5283,-2.5289,0,0,0,0,0,0,-2.4572,-2.4596,-2.4626,-2.4695,-2.472,-2.4835,-2.4817,-2.4827,-2.4865,-2.4865,-2.4935,-2.4945,-2.4972,-2.5058,-2.5075,-2.5109,-2.5063,-2.5274,-2.5278,-2.5282,-2.5286,-2.5292,-2.5297,0,0,0,0,0,-2.4564,-2.4623,-2.4627,-2.4648,-2.4759,-2.4837,-2.4851,-2.4882,-2.4868,-2.4898,-2.4937,-2.4942,-2.5094,-2.5066,-2.5085,-2.5122,-2.5272,-2.5277,-2.5282,-2.5284,-2.5291,-2.5297,0,0,0,0,0,0,-2.4556,-2.4632,-2.4638,-2.4721,-2.4773,-2.484,-2.4879,-2.4889,-2.4945,-2.4943,-2.4979,-2.4994,-2.5071,-2.5104,-2.5071,-2.5201,-2.5182,-2.5191,-2.5177,-2.5184,-2.5189,-2.5179,-2.5069,0,0,0,0,0,-2.4564,-2.4621,-2.4684,-2.4751,-2.4777,-2.4824,-2.4859,-2.4878,-2.4933,-2.4954,-2.4999,-2.5051,-2.5111,-2.5149,-2.5208,-2.5291,-2.5307,-2.5326,-2.5331,-2.5336,-2.5343,-2.539,-2.5399,-2.53,-2.53,-2.5299,0,0,-2.4581,-2.463,-2.4663,-2.4751,-2.4793,-2.4851,-2.4842,-2.4904,-2.4947,-2.4964,-2.5041,-2.5075,-2.5137,-2.5218,-2.5256,-2.5248,-2.5374,-2.5342,-2.5344,-2.5349,-2.5395,-2.5405,-2.5413,-2.5303,-2.5302,-2.5302,0,0,-2.4642,-2.4684,-2.4745,-2.4787,-2.4851,-2.4882,-2.4896,-2.4963,-2.4986,-2.5064,-2.5078,-2.513,-2.5232,-2.5275,-2.5311,-2.5389,-2.5396,-2.5407,-2.5435,-2.548,-2.5488,-2.5495,-2.5523,-2.5532,-2.5414,-2.5414,-2.5414,0,-2.4655,-2.4743,-2.4775,-2.4837,-2.4875,-2.4893,-2.4955,-2.4994,-2.5074,-2.51,-2.509,-2.5218,-2.5261,-2.5353,-2.5372,-2.54,-2.5418,-2.5399,-2.5484,-2.5492,-2.5499,-2.5526,-2.5536,-2.5415,-2.5415,-2.5414,-2.5414,0,-2.4756,-2.4817,-2.4858,-2.4934,-2.4978,-2.5039,-2.5081,-2.5121,-2.5137,-2.5169,-2.5248,-2.53,-2.5369,-2.5393,-2.5409,-2.5487,-2.548,-2.5477,-2.5458,-2.5508,-2.5534,-2.5545,-2.5416,-2.5416,-2.5415,-2.5415,0,0,-2.4815,-2.4908,-2.4923,-2.4958,-2.503,-2.5078,-2.514,-2.5208,-2.5241,-2.5296,-2.5349,-2.5436,-2.5433,-2.5473,-2.5494,-2.5534,-2.5593,-2.5526,-2.5528,-2.5536,-2.5683,-2.5685,-2.5696,-2.5598,-2.5601,-2.5602,-2.5678,0,-2.4884,-2.4995,-2.5026,-2.5121,-2.5177,-2.5196,-2.525,-2.5301,-2.5332,-2.5386,-2.5421,-2.5481,-2.5473,-2.5498,-2.5538,-2.5577,-2.5623,-2.5572,-2.5648,-2.5651,-2.5632,-2.571,-2.5712,-2.578,-2.5688,-2.569,-2.5691,0,-2.4979,-2.5035,-2.5135,-2.52,-2.5225,-2.5273,-2.5338,-2.5389,-2.5446,-2.5467,-2.5512,-2.553,-2.5596,-2.5574,-2.5666,-2.5631,-2.5664,-2.5688,-2.5691,-2.5699,-2.5673,-2.5719,-2.5803,-2.5813,-2.5707,-2.5706,-2.5705,0,-2.5011,-2.5112,-2.5185,-2.5215,-2.5292,-2.5326,-2.536,-2.5416,-2.5455,-2.5511,-2.5537,-2.5601,-2.5635,-2.5685,-2.5719,-2.57,-2.5808,-2.5789,-2.5827,-2.5826,-2.5849,-2.5847,-2.5938,-2.5871,-2.587,-2.587,-2.587,0,-2.5085,-2.5145,-2.5201,-2.5246,-2.5314,-2.535,-2.5417,-2.5451,-2.5501,-2.5553,-2.5573,-2.5622,-2.5665,-2.5719,-2.5747,-2.5819,-2.5835,-2.5853,-2.586,-2.5851,-2.5849,-2.5873,-2.5869,-2.5873,-2.5872,-2.5872,-2.5871,0,-2.5133,-2.5172,-2.5253,-2.532,-2.5338,-2.5386,-2.5443,-2.5488,-2.5521,-2.5587,-2.5604,-2.5656,-2.5721,-2.5761,-2.5843,-2.5862,-2.5941,-2.5946,-2.5922,-2.5925,-2.596,-2.5956,-2.607,-2.6087,-2.6008,-2.6009,-2.601,0,-2.5177,-2.5224,-2.5296,-2.5332,-2.5366,-2.5425,-2.5464,-2.5501,-2.5542,-2.5611,-2.5648,-2.5714,-2.5769,-2.5873,-2.5918,-2.5981,-2.5988,-2.6023,-2.5997,-2.5987,-2.5988,-2.5985,-2.5989,-2.6027,-2.6028,-2.6029,-2.6029,0,-2.5251,-2.5268,-2.5325,-2.5388,-2.5435,-2.5487,-2.5539,-2.5567,-2.5613,-2.5658,-2.5725,-2.5767,-2.5852,-2.5918,-2.5985,-2.6021,-2.6033,-2.6037,-2.6049,-2.6041,-2.6025,-2.6034,-2.5933,-2.6034,-2.6034,-2.6033,-2.6033,-2.6033,-2.5299,-2.5341,-2.5399,-2.5461,-2.5504,-2.5551,-2.5597,-2.5635,-2.5691,-2.5763,-2.5781,-2.5852,-2.5909,-2.6,-2.6037,-2.6093,-2.6088,-2.6105,-2.611,-2.6113,-2.6114,-2.6016,-2.6105,-2.6105,-2.6105,-2.6105,-2.6105,0,-2.5374,-2.5412,-2.5468,-2.554,-2.5589,-2.5596,-2.5654,-2.5694,-2.5756,-2.5808,-2.5862,-2.5939,-2.6003,-2.6053,-2.6119,-2.6154,-2.6161,-2.617,-2.6168,-2.6176,-2.6115,-2.6098,-2.6163,-2.6163,-2.6163,-2.6163,-2.6163,-2.6163,-2.5419,-2.5491,-2.5515,-2.5609,-2.5647,-2.5716,-2.5748,-2.5793,-2.5834,-2.5919,-2.5973,-2.6005,-2.6057,-2.6126,-2.6186,-2.6199,-2.6222,-2.623,-2.6244,-2.6186,-2.618,-2.6174,-2.6158,-2.6235,-2.6235,-2.63,-2.6301,-2.6301]},{"header":{"parameterUnit":"m.s-1","parameterCategory":1,"la1":30.2991,"la2":30.254,"lo1":-89.0895,"lo2":-89.0444,"dy":0.0017,"dx":0.0017,"nx":28,"ny":28,"refTime":"2024-05-23T21:00:00:Z","depth":0,"parameterNumber":3,"parameterNumberName":"V-component_of_WINDS"},"data":[0,0,0,0,0,0,0,0,0,0,0,0,0,0,0,0,0,0,0,0,0,0,0,0,0,0,0,0,0,0,0,0,0,0,0,0,0,0,0,0,0,0,0,0,0,0,0,0,0,0,0,0,0,0,0,0,0,0,5.1702,5.1702,0,5.1742,5.1743,5.1743,5.1674,5.1672,5.167,5.1668,5.1706,5.1709,5.1712,0,0,0,0,0,0,0,0,0,0,0,0,0,5.156,5.1563,5.1701,5.1702,5.1703,5.1742,5.1743,5.1743,5.1675,5.1672,5.1669,5.1667,5.1705,5.1709,5.1712,0,0,0,0,0,0,0,0,0,0,0,0,0,5.1613,5.1564,5.1701,5.1673,5.1671,5.1742,5.1743,5.1744,5.1675,5.1672,5.1668,5.1665,5.1704,5.1708,5.1713,5.1812,0,0,5.1728,5.173,0,0,0,0,0,0,0,0,5.161,5.1618,5.1677,5.1675,5.1673,5.17,5.1707,5.1766,5.1676,5.1674,5.1668,5.1664,5.1706,5.1711,5.1726,5.1814,5.1816,5.1728,5.1731,5.1733,5.1734,0,0,0,0,0,0,0,5.1606,5.1616,5.1717,5.1678,5.1675,5.1657,5.1661,5.1718,5.1709,5.1674,5.1669,5.1675,5.1705,5.1722,5.1726,5.1816,5.1728,5.1732,5.1735,5.1737,5.1986,5.1989,0,0,0,0,0,0,5.1607,5.1613,5.1716,5.1719,5.1632,5.1662,5.1667,5.1695,5.1708,5.1707,5.1678,5.1671,5.1715,5.1721,5.1727,5.1843,5.1733,5.1737,5.174,5.1982,5.1986,5.1991,0,0,0,0,0,0,5.1604,5.1617,5.1715,5.1665,5.1676,5.1669,5.1701,5.1697,5.1714,5.1711,5.1709,5.1697,5.1713,5.1721,5.1791,5.1843,5.174,5.1744,5.1978,5.1983,5.1988,5.2076,0,0,0,0,0,0,5.16,5.1616,5.1655,5.1666,5.1679,5.1779,5.1704,5.1701,5.1723,5.1715,5.1729,5.1727,5.171,5.1785,5.1796,5.1848,5.1748,5.1973,5.198,5.1987,5.2068,5.2084,5.2097,0,0,0,0,0,5.1595,5.1678,5.1657,5.167,5.1727,5.1783,5.179,5.1769,5.1728,5.1765,5.1763,5.1727,5.1836,5.1793,5.1805,5.1859,5.1969,5.1978,5.1986,5.2062,5.2081,5.2097,0,0,0,0,0,0,5.1671,5.1678,5.1656,5.1745,5.1764,5.1771,5.1818,5.179,5.1821,5.1812,5.1785,5.1788,5.1864,5.1869,5.182,5.1955,5.1895,5.1907,5.1949,5.1967,5.1981,5.1977,5.1752,0,0,0,0,0,5.1699,5.1744,5.1747,5.1825,5.1836,5.1826,5.1849,5.1832,5.185,5.1857,5.186,5.1878,5.1916,5.1942,5.1977,5.2069,5.207,5.2112,5.2126,5.2138,5.2148,5.2194,5.2213,5.2018,5.2018,5.2018,0,0,5.1755,5.1764,5.1795,5.1841,5.1853,5.1899,5.1833,5.1885,5.1918,5.1865,5.1931,5.1935,5.1953,5.2034,5.207,5.204,5.2202,5.2149,5.2158,5.2161,5.2205,5.2223,5.224,5.2024,5.2023,5.2022,0,0,5.188,5.1894,5.1959,5.1973,5.1993,5.1986,5.2002,5.2013,5.2013,5.208,5.2041,5.2079,5.2146,5.216,5.2176,5.2306,5.2273,5.2319,5.2393,5.2439,5.2454,5.2467,5.2512,5.2528,5.2328,5.2329,5.2329,0,5.1947,5.2017,5.1995,5.205,5.207,5.2025,5.209,5.2104,5.2135,5.2149,5.2116,5.2198,5.2207,5.229,5.2321,5.2337,5.2352,5.2316,5.2454,5.2467,5.2479,5.2521,5.2538,5.2334,5.2333,5.2333,5.2332,0,5.2097,5.2145,5.2195,5.2226,5.2253,5.2312,5.2298,5.2327,5.2307,5.2303,5.2371,5.238,5.2415,5.2434,5.2416,5.2514,5.2495,5.2459,5.2398,5.2503,5.2542,5.2558,5.2341,5.2339,5.2338,5.2337,0,0,5.2271,5.2289,5.2308,5.232,5.234,5.2376,5.2432,5.2468,5.2492,5.2515,5.256,5.2617,5.2583,5.2601,5.2584,5.2625,5.2725,5.2582,5.2582,5.2607,5.2831,5.2857,5.2876,5.2704,5.2707,5.2709,5.2829,0,5.2394,5.2493,5.2475,5.257,5.2613,5.2571,5.2619,5.2636,5.2633,5.2668,5.2665,5.2705,5.2658,5.2669,5.2707,5.2704,5.2769,5.2696,5.2743,5.2745,5.2738,5.2897,5.2925,5.3038,5.2844,5.2847,5.2849,0,5.2551,5.258,5.268,5.269,5.2708,5.2752,5.2782,5.2817,5.2834,5.2829,5.2849,5.2824,5.2878,5.2819,5.2892,5.2843,5.2861,5.2863,5.2867,5.2869,5.2802,5.2901,5.3073,5.309,5.2873,5.2871,5.2869,0,5.2665,5.2729,5.2796,5.2809,5.2824,5.2856,5.2863,5.2877,5.2898,5.2925,5.2938,5.297,5.2987,5.3012,5.2995,5.2954,5.3071,5.301,5.3066,5.3067,5.3091,5.309,5.3267,5.3107,5.3107,5.3107,5.3106,0,5.2804,5.2866,5.2848,5.2889,5.2957,5.2935,5.3002,5.3004,5.3017,5.3056,5.3022,5.3059,5.3036,5.3071,5.3059,5.312,5.3129,5.3125,5.312,5.3127,5.3127,5.3137,5.3128,5.3111,5.311,5.3109,5.3108,0,5.2942,5.2933,5.3003,5.3011,5.3015,5.3064,5.307,5.3108,5.3103,5.3153,5.3164,5.3156,5.3195,5.3182,5.3224,5.3215,5.3293,5.328,5.3288,5.3284,5.334,5.3334,5.3528,5.3551,5.3378,5.338,5.3381,0,5.303,5.3077,5.309,5.3115,5.3125,5.3165,5.3187,5.3167,5.3192,5.3214,5.3248,5.3285,5.3314,5.3379,5.3376,5.3408,5.3393,5.3459,5.3397,5.3402,5.3391,5.3388,5.3392,5.347,5.3472,5.3474,5.3475,0,5.3187,5.318,5.3214,5.3246,5.3274,5.3298,5.3319,5.3341,5.3322,5.3351,5.3391,5.3413,5.3457,5.3493,5.3522,5.3527,5.3498,5.3495,5.3509,5.3515,5.3517,5.3515,5.3319,5.349,5.3489,5.3488,5.3487,5.3486,5.3301,5.334,5.3355,5.3394,5.3408,5.3428,5.3463,5.3463,5.3496,5.353,5.3517,5.3563,5.3577,5.3612,5.3622,5.3657,5.3631,5.3653,5.3658,5.3663,5.3669,5.3514,5.3662,5.3662,5.3662,5.3661,5.3661,0,5.3454,5.3462,5.3498,5.3528,5.3558,5.3529,5.355,5.3577,5.3618,5.3634,5.3663,5.3709,5.3744,5.3743,5.3775,5.3803,5.379,5.3812,5.3809,5.381,5.3691,5.3675,5.3822,5.3822,5.3822,5.3822,5.3822,5.3822,5.3537,5.3601,5.3596,5.3665,5.3672,5.3717,5.3732,5.375,5.3762,5.3815,5.3844,5.3844,5.3853,5.3885,5.3915,5.3914,5.3926,5.3953,5.3947,5.3835,5.3819,5.3804,5.3788,5.3957,5.3957,5.4063,5.4064,5.4064]}]]